Flag for Jersey Weather past 2 weeks in Saint Helier, Jersey

Now
46 °F

Passing clouds.


Feels Like: 38 °F
Forecast: N/A
Wind: 25 mph from West

Location: Jersey Airport

Current Time: Mar 2, 2015 at 5:28:29 PM

Latest Report: Mar 2, 2015 at 4:50 PM


Visibility: N/A

Pressure: 30.07 "Hg

Humidity: 66%

Dew point: 36 °F

Location of Saint HelierLocation

Historic Weather in Saint Helier — Graph

°F

Saint Helier temperature yesterday

Maximum temperature yesterday: 52 °F (at 11:50 AM)
Minimum temperature yesterday: 46 °F (at 8:50 PM)
Average temperature yesterday: 49 °F

Past Weeks' High & Low Weather Summary

 TemperatureHumidityPressure
High52 °F (Mar 1, 11:50 AM)100% (Feb 15, 7:20 PM)30.77 "Hg (Feb 15, 7:20 PM)
Low34 °F (Feb 22, 5:50 AM)61% (Feb 18, 3:20 PM)29.45 "Hg (Feb 23, 3:50 AM)
Average45 °F85%29.98 "Hg
* Reported Feb 15 4:20 PM — Mar 2 4:20 PM, Saint Helier, Weather by CustomWeather, © 2015

Note: Actual official high and low records may vary slightly from our data, if they occured in-between our weather recording intervals... More about our weather records

Advertising

Saint Helier weather history for previous 24 hours

 ConditionsComfort  
Time TempWeatherWind HumidityBarometerVisibility
4:20 PM
Mon, Mar 2
46 °FSprinkles. Partly sunny.25 mph71%30.04 "HgN/A
3:50 PM46 °FScattered clouds.25 mph66%30.04 "HgN/A
3:20 PM48 °FScattered showers. Scattered clouds.23 mph71%30.04 "HgN/A
2:50 PM46 °FScattered showers. Passing clouds.15 mph76%30.04 "HgN/A
2:20 PM45 °FPassing clouds.16 mph71%30.04 "HgN/A
1:50 PM45 °FSprinkles. Partly sunny.24 mph66%30.04 "HgN/A
1:20 PM45 °FPassing clouds.25 mph66%30.01 "HgN/A
12:50 PM41 °FScattered showers. Scattered clouds.20 mph87%30.01 "HgN/A
12:20 PM46 °FScattered showers. Passing clouds.22 mph66%30.01 "HgN/A
11:50 AM46 °FPassing clouds.23 mph62%29.98 "HgN/A
11:20 AM45 °FPassing clouds.23 mph71%29.98 "HgN/A
10:50 AM43 °FRain showers. Partly sunny.39 mph81%29.98 "Hg4 mi
10:20 AM45 °FPassing clouds.30 mph71%29.95 "HgN/A
9:50 AM46 °FSprinkles. Scattered clouds.32 mph76%29.92 "HgN/A
9:20 AM43 °FScattered showers. Scattered clouds.29 mph81%29.92 "HgN/A
8:50 AM46 °FPassing clouds.24 mph71%29.89 "HgN/A
8:20 AM45 °FPassing clouds.26 mph71%29.86 "HgN/A
7:50 AM43 °FScattered showers. Passing clouds.30 mph87%29.86 "HgN/A
7:20 AM43 °FScattered showers. Passing clouds.29 mph87%29.83 "HgN/A
6:50 AM43 °FPassing clouds.28 mph81%29.80 "HgN/A
6:20 AM43 °FScattered showers. Passing clouds.26 mph81%29.80 "HgN/A
5:50 AM45 °FScattered showers. Passing clouds.25 mph81%29.80 "HgN/A
5:20 AM45 °FPassing clouds.22 mph87%29.77 "HgN/A
4:50 AM43 °FPassing clouds.18 mph93%29.77 "HgN/A
4:20 AM43 °FLots of rain. Passing clouds.22 mph87%29.77 "Hg3 mi
8:50 PM
Sun, Mar 1
46 °FPassing clouds.23 mph93%29.68 "HgN/A
8:20 PM48 °FPassing clouds.21 mph94%29.68 "HgN/A
7:20 PM48 °FPassing clouds.21 mph94%29.68 "HgN/A
6:50 PM48 °FSprinkles. Passing clouds.21 mph100%29.65 "Hg2 mi
6:20 PM48 °FSprinkles. Passing clouds.25 mph100%29.65 "Hg2 mi
5:50 PM48 °FPassing clouds.24 mph94%29.65 "Hg6 mi
5:20 PM50 °FPassing clouds.24 mph88%29.65 "HgN/A
Weather by CustomWeather, © 2015

See weather overviewHow to use our weather pages